Location: Newark
(42.8481°N, 0.4872°E)
Time: 09:26:33
(UTC+00:00)

A-11 Canister half - Pass Details

Date: 27 October 2020
Orbit: 1516 x 1684 km, 47.2° (Epoch: 04 December)

Event Time Altitude Azimuth Distance (km) Brightness Sun altitude
Exits shadow 03:49:07 36° 206° (SSW) 2,274 9.5 -29.3°
Drops below altitude 10° 03:55:56 10° 161° (SSE) 3,695 11.1 -28.1°
Sets 03:59:12 0° 154° (SSE) 4,661 11.8 -27.5°
